Regional Weather Roundup
Issued by NWS

Home | Current Version | Previous Version | Graphics & Text | Print | Product List | Glossary Off
Versions: 1 2 3 4 5 6 7 8 9 10 11 12 13 14 15 16 17 18 19 20 21 22 23 24 25 26 27 28 29 30 31 32 33 34 35 36 37 38 39 40 41 42 43 44 45 46 47 48 49 50

689
ASUS43 KTOP 030608
RWRKS

WEATHER ROUNDUP FOR KANSAS
NATIONAL WEATHER SERVICE GOODLAND KS
1200 AM CST SAT DEC 03 2016

NOTE:  "FAIR" INDICATES FEW OR NO CLOUDS BELOW 12,000 FEET WITH NO
SIGNIFICANT WEATHER AND/OR OBSTRUCTIONS TO VISIBILITY.

KSZ001>006-013>018-027>032-041>047-030700-
NORTHWEST KANSAS

CITY           SKY/WX    TMP DP  RH WIND       PRES   REMARKS
HAYS           MOCLDY    32  25  75 NE3       30.33R
RUSSELL        CLOUDY    32  25  75 N3        30.31
6HR MIN TEMP:  27; 6HR MAX TEMP:  35;

$$

KSZ061>065-074>080-084>089-030700-
SOUTHWEST KANSAS

CITY           SKY/WX    TMP DP  RH WIND       PRES   REMARKS
DODGE CITY     CLOUDY    36  20  52 CALM      30.28F
6HR MIN TEMP:  36; 6HR MAX TEMP:  40;

ELKHART          N/A     37  12  35 E9          N/A
GARDEN CITY    CLOUDY    35  19  52 NE8       30.26F
6HR MIN TEMP:  35; 6HR MAX TEMP:  42;

GREAT BEND     CLOUDY    34  24  67 CALM      30.32S
LIBERAL        CLOUDY    37  25  60 SE15G23   30.25F WCI  28
PRATT          CLOUDY    36  22  58 NE6       30.29F
6HR MIN TEMP:  34; 6HR MAX TEMP:  38;

$$

KSZ066>073-081>083-090>101-030700-
SOUTHEAST KANSAS

CITY           SKY/WX    TMP DP  RH WIND       PRES   REMARKS
CHANUTE        CLOUDY    44  27  51 NE8       30.31S
6HR MIN TEMP:  42; 6HR MAX TEMP:  47;

COFFEYVILLE    CLOUDY    47  30  51 NE10      30.29S
6HR MIN TEMP:  45; 6HR MAX TEMP:  48;

HUTCHINSON     MOCLDY    38  25  59 CALM      30.33R
6HR MIN TEMP:  36; 6HR MAX TEMP:  42;

MEDICINE LODGE   N/A     42  24  49 NE5       30.28F
NEWTON         CLOUDY    39  25  57 E6        30.33R
PARSONS        CLOUDY    44  30  57 NE6       30.31R
6HR MIN TEMP:  44; 6HR MAX TEMP:  47;

WICHITA JABRA  CLOUDY    39  28  64 N8        30.30S
6HR MIN TEMP:  38; 6HR MAX TEMP:  43;

WICHITA MCCONL CLOUDY    42  26  51 NE8       30.30R
WINFIELD       CLOUDY    45  26  47 NE9       30.28S
6HR MIN TEMP:  44; 6HR MAX TEMP:  48;

$$

KSZ007>012-019>026-033>040-048>060-102>105-030700-
NORTHEAST KANSAS

CITY           SKY/WX    TMP DP  RH WIND       PRES   REMARKS
CONCORDIA      CLOUDY    30  25  81 SE3       30.35R
6HR MIN TEMP:  27; 6HR MAX TEMP:  37;

LAWRENCE       PTCLDY    29  25  85 CALM      30.37R
6HR MIN TEMP:  28; 6HR MAX TEMP:  34;

MANHATTAN      CLOUDY    34  27  75 N5        30.37R
6HR MIN TEMP:  27; 6HR MAX TEMP:  40;

MARYSVILLE     PTCLDY    27  23  86 CALM      30.36S
$$




USA.gov is the U.S. government's official web portal to all federal, state and local government web resources and services.